Freeport, IL

1:57 PM CDT on May 20, 2018 (GMT -0500)
Albertus

Weather History for KFEP - September, 2014

Change the Weather History Date:

Saturday, September 6, 2014

  Actual Average Record
Temperature  
Mean Temperature 62 °F -  
Max Temperature 72 °F 78 °F 90 °F (1990)
Min Temperature 51 °F 53 °F 38 °F (1988)
Degree Days  
Heating Degree Days 3    
Growing Degree Days 12 (Base 50)    
Moisture  
Dew Point 53 °F    
Average Humidity 76    
Maximum Humidity 100    
Minimum Humidity 48    
Precipitation  
Precipitation 0.00 in - - ()
Sea Level Pressure  
Sea Level Pressure 30.20 in    
Wind  
Wind Speed 6 mph (NW)    
Max Wind Speed 14 mph    
Max Gust Speed 18 mph    
Visibility 10 miles    
Events      
Averages and records for this station are not official NWS values.
T = Trace of Precipitation, MM = Missing Value Source: NWS Daily Summary

Daily Weather History Graph

Daily Weather History Graph

Search for Another Location

Airport or City:

Astronomy

Sep. 06, 2014 Rise Set
Actual Time 6:28 AM CDT 7:23 PM CDT
Civil Twilight 6:00 AM CDT 7:52 PM CDT
Nautical Twilight 5:26 AM CDT 8:25 PM CDT
Astronomical Twilight 4:50 AM CDT 9:01 PM CDT
Moon 5:41 PM CDT (9/6) 3:28 AM CDT (9/6)
Length of Visible Light 13h 51m
Length of Day
12h 54m
Waxing Gibbous, 92% of the Moon is Illuminated
Sep 6
Waxing Gibbous
Sep 8
Full
Sep 15
Last Quarter
Sep 24
New
Oct 1
First Quarter

Hourly Weather History & Observations

Time (CDT) Temp. Dew Point Humidity Pressure Visibility Wind Dir Wind Speed Gust Speed Precip Events Conditions
12:35 AM 57.4 °F 55.0 °F 92% 30.16 in 10.0 mi NW 4.6 mph - N/A   Mostly Cloudy
12:55 AM 57.4 °F 54.7 °F 91% 30.16 in 10.0 mi NW 5.8 mph - N/A   Mostly Cloudy
1:15 AM 57.4 °F 54.9 °F 91% 30.16 in 10.0 mi NW 5.8 mph - N/A   Scattered Clouds
1:35 AM 57.4 °F 55.0 °F 92% 30.16 in 10.0 mi NW 5.8 mph - N/A   Clear
1:55 AM 57.2 °F 55.4 °F 94% 30.16 in 10.0 mi WNW 6.9 mph - N/A   Clear
2:15 AM 57.4 °F 55.4 °F 93% 30.16 in 10.0 mi NW 3.5 mph - N/A   Clear
2:35 AM 57.4 °F 55.4 °F 93% 30.15 in 10.0 mi NW 5.8 mph - N/A   Clear
2:55 AM 57.2 °F 55.2 °F 93% 30.16 in 10.0 mi NNW 5.8 mph - N/A   Clear
3:15 AM 54.9 °F 53.1 °F 94% 30.16 in 10.0 mi NNW 8.1 mph - N/A   Clear
3:35 AM 55.4 °F 53.6 °F 94% 30.16 in 10.0 mi NNW 6.9 mph - N/A   Clear
3:55 AM 54.9 °F 53.1 °F 94% 30.16 in 10.0 mi NNW 5.8 mph - N/A   Clear
4:15 AM 54.5 °F 52.7 °F 94% 30.16 in 10.0 mi NNW 6.9 mph - N/A   Clear
4:35 AM 53.6 °F 51.8 °F 94% 30.17 in 10.0 mi NNW 6.9 mph - N/A   Clear
4:55 AM 53.6 °F 51.8 °F 94% 30.18 in 10.0 mi NW 4.6 mph - N/A   Clear
5:15 AM 51.8 °F 51.8 °F 100% 30.17 in 10.0 mi NW 8.1 mph - N/A   Clear
5:35 AM 52.3 °F 50.9 °F 95% 30.18 in 10.0 mi NNW 6.9 mph - N/A   Clear
5:55 AM 52.3 °F 50.9 °F 95% 30.18 in 10.0 mi NNW 6.9 mph - N/A   Clear
6:15 AM 52.3 °F 50.9 °F 95% 30.18 in 10.0 mi NNW 5.8 mph - N/A   Clear
6:35 AM 52.3 °F 50.9 °F 95% 30.19 in 10.0 mi NW 5.8 mph - N/A   Clear
6:55 AM 52.3 °F 50.9 °F 95% 30.19 in 10.0 mi NW 5.8 mph - N/A   Clear
7:15 AM 52.3 °F 50.9 °F 95% 30.20 in 10.0 mi NNW 5.8 mph - N/A   Clear
7:35 AM 52.3 °F 50.9 °F 95% 30.20 in 10.0 mi NNW 5.8 mph - N/A   Clear
7:55 AM 53.6 °F 51.8 °F 94% 30.21 in 10.0 mi NNW 8.1 mph - N/A   Clear
8:15 AM 54.9 °F 52.7 °F 92% 30.21 in 10.0 mi NNW 6.9 mph - N/A   Clear
8:35 AM 57.4 °F 54.7 °F 91% 30.21 in 10.0 mi NNW 6.9 mph - N/A   Clear
8:55 AM 57.4 °F 53.8 °F 88% 30.22 in 10.0 mi NNW 8.1 mph - N/A   Clear
9:15 AM 59.9 °F 55.0 °F 84% 30.21 in 10.0 mi North 6.9 mph - N/A   Clear
9:35 AM 60.6 °F 54.7 °F 81% 30.22 in 10.0 mi NNW 8.1 mph - N/A   Clear
9:55 AM 62.6 °F 54.5 °F 75% 30.23 in 10.0 mi North 5.8 mph - N/A   Clear
10:15 AM 63.0 °F 54.3 °F 73% 30.23 in 10.0 mi NNW 6.9 mph - N/A   Clear
10:35 AM 63.7 °F 53.6 °F 70% 30.24 in 10.0 mi North 6.9 mph - N/A   Clear
10:55 AM 64.9 °F 52.7 °F 64% 30.24 in 10.0 mi NNW 13.8 mph 18.4 mph N/A   Clear
11:15 AM 64.9 °F 51.8 °F 62% 30.24 in 10.0 mi NNW 8.1 mph - N/A   Clear
11:35 AM 64.9 °F 49.5 °F 57% 30.24 in 10.0 mi NNW 6.9 mph - N/A   Clear
11:55 AM 65.8 °F 50.5 °F 58% 30.24 in 10.0 mi NNW 9.2 mph - N/A   Clear
12:15 PM 66.6 °F 50.0 °F 55% 30.24 in 10.0 mi NW 5.8 mph 9.2 mph N/A   Clear
12:35 PM 67.6 °F 51.1 °F 55% 30.23 in 10.0 mi NNW 5.8 mph - N/A   Clear
12:55 PM 67.6 °F 50.4 °F 54% 30.23 in 10.0 mi NNW 4.6 mph - N/A   Clear
1:15 PM 68.2 °F 50.7 °F 54% 30.23 in 10.0 mi NNW 4.6 mph - N/A   Clear
1:35 PM 70.2 °F 52.2 °F 53% 30.23 in 10.0 mi North 5.8 mph - N/A   Clear
1:55 PM 70.2 °F 51.6 °F 52% 30.22 in 10.0 mi WNW 6.9 mph - N/A   Clear
2:15 PM 70.2 °F 52.0 °F 52% 30.22 in 10.0 mi NW 4.6 mph - N/A   Clear
2:35 PM 72.7 °F 53.4 °F 51% 30.22 in 10.0 mi NW 5.8 mph - N/A   Clear
2:55 PM 72.7 °F 53.8 °F 51% 30.21 in 10.0 mi NNW 8.1 mph - N/A   Clear
3:15 PM 72.7 °F 52.7 °F 49% 30.21 in 10.0 mi North 4.6 mph - N/A   Clear
3:35 PM 73.4 °F 53.6 °F 50% 30.21 in 10.0 mi NW 6.9 mph - N/A   Clear
3:55 PM 72.7 °F 54.1 °F 52% 30.20 in 10.0 mi NW 8.1 mph - N/A   Clear
4:15 PM 72.7 °F 51.8 °F 48% 30.20 in 10.0 mi West 3.5 mph - N/A   Clear
4:35 PM 72.7 °F 53.1 °F 50% 30.19 in 10.0 mi West 5.8 mph - N/A   Clear
4:55 PM 72.7 °F 51.8 °F 48% 30.19 in 10.0 mi NW 4.6 mph - N/A   Clear
5:15 PM 72.7 °F 53.4 °F 51% 30.19 in 10.0 mi NW 5.8 mph - N/A   Clear
5:35 PM 72.7 °F 52.7 °F 49% 30.19 in 10.0 mi WNW 8.1 mph - N/A   Clear
5:55 PM 72.7 °F 54.0 °F 52% 30.19 in 10.0 mi WNW 4.6 mph - N/A   Clear
6:15 PM 72.7 °F 55.2 °F 54% 30.19 in 10.0 mi WNW 6.9 mph - N/A   Clear
6:35 PM 70.2 °F 55.8 °F 60% 30.19 in 10.0 mi West 5.8 mph - N/A   Clear
6:55 PM 67.6 °F 55.6 °F 65% 30.19 in 10.0 mi West 4.6 mph - N/A   Clear
7:15 PM 65.5 °F 55.0 °F 69% 30.19 in 10.0 mi WSW 4.6 mph - N/A   Clear
7:35 PM 64.0 °F 55.4 °F 73% 30.19 in 10.0 mi WSW 4.6 mph - N/A   Clear
7:55 PM 62.6 °F 56.1 °F 79% 30.19 in 10.0 mi WSW 4.6 mph - N/A   Clear
8:15 PM 60.1 °F 55.4 °F 85% 30.19 in 10.0 mi SW 5.8 mph - N/A   Clear
8:35 PM 59.9 °F 55.6 °F 86% 30.20 in 10.0 mi SW 5.8 mph - N/A   Clear
9:15 PM 62.6 °F 55.0 °F 76% 30.21 in 10.0 mi SW 6.9 mph - N/A   Clear
9:35 PM 61.3 °F 54.5 °F 78% 30.21 in 10.0 mi SW 5.8 mph - N/A   Clear
9:55 PM 59.7 °F 54.9 °F 84% 30.21 in 10.0 mi WSW 5.8 mph - N/A   Clear
10:15 PM 59.9 °F 54.1 °F 81% 30.21 in 10.0 mi WSW 4.6 mph - N/A   Clear
10:35 PM 59.9 °F 54.5 °F 82% 30.21 in 10.0 mi WSW 5.8 mph - N/A   Clear
10:55 PM 58.6 °F 54.0 °F 84% 30.21 in 10.0 mi WSW 4.6 mph - N/A   Clear
11:15 PM 58.3 °F 53.6 °F 84% 30.21 in 10.0 mi WSW 5.8 mph - N/A   Clear
11:35 PM 57.4 °F 53.2 °F 86% 30.21 in 10.0 mi WSW 4.6 mph - N/A   Clear
11:55 PM 57.4 °F 53.1 °F 85% 30.21 in 10.0 mi WSW 3.5 mph - N/A   Clear